[[{"header":{"parameterUnit":"m.s-1","parameterCategory":2,"la1":30.2991,"la2":30.254,"lo1":-89.0895,"lo2":-89.0444,"dy":0.0017,"dx":0.0017,"nx":28,"ny":28,"refTime":"2023-11-05T09:00:00:Z","depth":"0","parameterNumber":2,"parameterNumberName":"U-component_of_CURRENTS"},"data":[0,0,0,0,0,0,0,0,0,0,0,0,0,0,0,0,0,0,0,0,0,0,0,0,0,0,0,0,0,0,0,0,0,0,0,0,0,0,0,0,0,0,0,0,0,0,0,0,0,0,0,0,0,0,0,0,0,0,0.2164,0.2163,0,0.2114,0.2113,0.2112,0.2064,0.2064,0.2063,0.2063,0.2,0.1998,0.1997,0,0,0,0,0,0,0,0,0,0,0,0,0,0.2201,0.22,0.2164,0.2163,0.2163,0.2114,0.2113,0.2112,0.2064,0.2064,0.2063,0.2063,0.2,0.1998,0.1997,0,0,0,0,0,0,0,0,0,0,0,0,0,0.2168,0.22,0.2164,0.2136,0.2134,0.2114,0.2113,0.2111,0.2064,0.2064,0.2063,0.2063,0.2001,0.1999,0.1996,0.199,0,0,0.199,0.1989,0,0,0,0,0,0,0,0,0.217,0.2166,0.2141,0.2138,0.2135,0.2098,0.2103,0.2072,0.2064,0.2086,0.2063,0.2063,0.2034,0.2029,0.2015,0.1987,0.1984,0.1989,0.1988,0.1987,0.1987,0,0,0,0,0,0,0,0.2172,0.2168,0.214,0.214,0.2137,0.2121,0.2116,0.2096,0.2059,0.2084,0.2082,0.2083,0.2032,0.2017,0.2013,0.1984,0.199,0.1988,0.1986,0.1985,0.2088,0.2092,0,0,0,0,0,0,0.2188,0.217,0.2141,0.2139,0.2157,0.2121,0.2115,0.2107,0.206,0.2054,0.2083,0.2081,0.2021,0.2016,0.2011,0.2071,0.1987,0.1985,0.1984,0.2084,0.2089,0.2094,0,0,0,0,0,0,0.2188,0.2185,0.2143,0.2157,0.2151,0.2122,0.2113,0.2106,0.2098,0.206,0.2052,0.2082,0.2021,0.2014,0.2031,0.2065,0.1984,0.1982,0.208,0.2086,0.2092,0.2146,0,0,0,0,0,0,0.2189,0.2185,0.2182,0.2158,0.2151,0.214,0.2113,0.2106,0.2101,0.2097,0.2057,0.205,0.202,0.2034,0.2028,0.2061,0.198,0.2075,0.2082,0.209,0.2139,0.2153,0.2165,0,0,0,0,0,0.2191,0.2184,0.2182,0.2179,0.2148,0.2141,0.2135,0.211,0.2101,0.21,0.2098,0.2052,0.208,0.2035,0.2027,0.206,0.2071,0.208,0.2089,0.2133,0.215,0.2165,0,0,0,0,0,0,0.219,0.2178,0.2175,0.2163,0.2161,0.2134,0.2128,0.212,0.2114,0.2114,0.208,0.2074,0.2119,0.2093,0.2045,0.2125,0.2077,0.2085,0.2113,0.2129,0.2142,0.2167,0.1979,0,0,0,0,0,0.2194,0.2188,0.218,0.2172,0.2173,0.2156,0.215,0.214,0.2134,0.2128,0.2111,0.2118,0.215,0.2139,0.2159,0.2169,0.2198,0.2201,0.2214,0.2224,0.2249,0.2336,0.2358,0.2124,0.2124,0.2123,0,0,0.219,0.2186,0.218,0.2173,0.2165,0.2169,0.215,0.2147,0.2161,0.2125,0.2139,0.2163,0.2175,0.2213,0.2229,0.2185,0.2312,0.2236,0.2244,0.2263,0.2348,0.237,0.239,0.213,0.2129,0.2128,0,0,0.2185,0.2181,0.2176,0.2181,0.2184,0.218,0.2188,0.2179,0.2185,0.2206,0.222,0.228,0.2267,0.2311,0.2326,0.2427,0.2397,0.2424,0.2472,0.2556,0.2575,0.2592,0.2664,0.2687,0.2404,0.2404,0.2404,0,0.2182,0.2174,0.2176,0.2181,0.2185,0.2192,0.2196,0.221,0.2214,0.2238,0.2222,0.2318,0.2329,0.2415,0.2464,0.2455,0.2484,0.2394,0.257,0.2587,0.2604,0.2673,0.2698,0.2408,0.2407,0.2407,0.2407,0,0.2178,0.2176,0.2177,0.2188,0.2199,0.2203,0.2231,0.2255,0.2269,0.229,0.2382,0.2424,0.2477,0.2508,0.2509,0.2641,0.262,0.2589,0.2515,0.263,0.2697,0.2721,0.2413,0.2412,0.2411,0.241,0,0,0.2147,0.2168,0.2167,0.2171,0.2202,0.2204,0.2257,0.23,0.2333,0.2386,0.244,0.2559,0.2589,0.2618,0.2644,0.2726,0.2883,0.2702,0.2705,0.2749,0.3059,0.305,0.3076,0.286,0.2865,0.2868,0.3059,0,0.2138,0.2143,0.2164,0.2174,0.2176,0.2219,0.2259,0.2313,0.2358,0.2416,0.252,0.2588,0.2623,0.2654,0.2753,0.2854,0.295,0.2834,0.2964,0.2969,0.2927,0.3106,0.308,0.3248,0.3083,0.3087,0.3089,0,0.2115,0.2124,0.213,0.2159,0.2165,0.2181,0.2245,0.2285,0.2393,0.2437,0.2543,0.2602,0.2771,0.2762,0.301,0.2923,0.3015,0.3089,0.3096,0.3089,0.3008,0.3111,0.3298,0.3144,0.3127,0.3124,0.3121,0,0.2069,0.2092,0.2094,0.2104,0.2149,0.2168,0.2198,0.2288,0.2333,0.2456,0.2504,0.2678,0.2769,0.2929,0.31,0.3057,0.3348,0.3293,0.3381,0.3379,0.339,0.3382,0.3427,0.3486,0.3485,0.3485,0.3484,0,0.2034,0.203,0.2068,0.2065,0.2075,0.2125,0.2156,0.2217,0.2314,0.2379,0.2508,0.2598,0.2817,0.2988,0.3129,0.335,0.3378,0.3453,0.3455,0.341,0.3401,0.3289,0.3198,0.3492,0.349,0.3489,0.3488,0,0.197,0.1996,0.1993,0.2034,0.2045,0.205,0.211,0.2145,0.2245,0.2337,0.2384,0.258,0.2819,0.3028,0.3299,0.339,0.35,0.3645,0.3576,0.3568,0.3485,0.3399,0.3361,0.3284,0.3793,0.3794,0.3795,0,0.1934,0.1925,0.1954,0.1952,0.1963,0.1984,0.2007,0.2101,0.2152,0.2327,0.2376,0.2615,0.2789,0.3181,0.3424,0.3699,0.3547,0.3783,0.372,0.3532,0.3438,0.323,0.3152,0.3762,0.3762,0.3763,0.3763,0,0.1859,0.1871,0.1876,0.1875,0.1884,0.1905,0.1948,0.1979,0.2109,0.2212,0.2371,0.2519,0.2909,0.3182,0.3523,0.3698,0.3583,0.3801,0.3644,0.3478,0.3223,0.313,0.3555,0.3769,0.3768,0.3768,0.3768,0.3767,0.1798,0.1784,0.1791,0.1788,0.1797,0.1813,0.1818,0.1904,0.1989,0.2139,0.2309,0.2525,0.2905,0.3403,0.3551,0.3726,0.3628,0.3683,0.3618,0.344,0.3295,0.3727,0.3901,0.3901,0.3901,0.3901,0.3902,0,0.1705,0.1705,0.1701,0.169,0.1672,0.1715,0.1767,0.1789,0.1873,0.2068,0.2229,0.2612,0.2918,0.3232,0.3556,0.3526,0.3422,0.3443,0.3149,0.3103,0.3558,0.3483,0.3526,0.3526,0.3526,0.3526,0.3527,0.3527,0.1655,0.1621,0.1628,0.1567,0.1564,0.1546,0.1568,0.1636,0.1757,0.1975,0.2184,0.2405,0.2742,0.3065,0.3194,0.3215,0.2961,0.289,0.2786,0.3095,0.3109,0.3123,0.303,0.2978,0.2977,0.2265,0.2259,0.2255]},{"header":{"parameterUnit":"m.s-1","parameterCategory":2,"la1":30.2991,"la2":30.254,"lo1":-89.0895,"lo2":-89.0444,"dy":0.0017,"dx":0.0017,"nx":28,"ny":28,"refTime":"2023-11-05T09:00:00:Z","depth":"0","parameterNumber":3,"parameterNumberName":"V-component_of_CURRENTS"},"data":[0,0,0,0,0,0,0,0,0,0,0,0,0,0,0,0,0,0,0,0,0,0,0,0,0,0,0,0,0,0,0,0,0,0,0,0,0,0,0,0,0,0,0,0,0,0,0,0,0,0,0,0,0,0,0,0,0,0,0.0023,0.0024,0,0.0071,0.0072,0.0072,0.008,0.0079,0.0079,0.0078,0.0036,0.0035,0.0034,0,0,0,0,0,0,0,0,0,0,0,0,0,-0.0027,-0.0026,0.0023,0.0024,0.0025,0.0071,0.0072,0.0073,0.008,0.0079,0.0078,0.0078,0.0036,0.0035,0.0034,0,0,0,0,0,0,0,0,0,0,0,0,0,0.0006,-0.0026,0.0023,0.0033,0.0034,0.0071,0.0072,0.0073,0.008,0.0079,0.0078,0.0078,0.0036,0.0035,0.0034,0.0043,0,0,0.0031,0.0031,0,0,0,0,0,0,0,0,0.0004,0.0008,0.0031,0.0033,0.0034,0.0068,0.0039,0.0058,0.008,0.0063,0.0078,0.0077,0.0038,0.0037,0.005,0.0041,0.0039,0.0031,0.0031,0.003,0.003,0,0,0,0,0,0,0,0.0002,0.0006,0.0043,0.0032,0.0034,0.0047,0.0051,0.0043,0.0053,0.0065,0.0065,0.007,0.0038,0.0051,0.0049,0.0039,0.0031,0.003,0.003,0.0029,0.0087,0.0089,0,0,0,0,0,0,-0.0006,0.0004,0.0041,0.0044,0.0016,0.0048,0.0052,0.0058,0.0055,0.0055,0.007,0.007,0.0053,0.005,0.0047,0.0106,0.003,0.0029,0.0029,0.0085,0.0087,0.0089,0,0,0,0,0,0,-0.0008,-0.0003,0.004,0.0024,0.0031,0.005,0.0057,0.006,0.007,0.006,0.0058,0.0076,0.0052,0.0049,0.0059,0.0102,0.0029,0.0028,0.0082,0.0085,0.0088,0.0191,0,0,0,0,0,0,-0.0009,-0.0004,-0.0001,0.0024,0.0031,0.0066,0.0057,0.0061,0.0074,0.0073,0.0065,0.0061,0.0052,0.0061,0.0058,0.0099,0.0027,0.0079,0.0084,0.0087,0.0185,0.0198,0.0208,0,0,0,0,0,-0.0011,-0.0003,-0.0001,0.0004,0.0035,0.0067,0.0072,0.0083,0.0074,0.0088,0.009,0.0061,0.0084,0.0062,0.0058,0.01,0.0077,0.0082,0.0087,0.018,0.0195,0.0208,0,0,0,0,0,0,-0.0029,-0.0001,0.0002,0.0016,0.0041,0.0068,0.008,0.0084,0.0099,0.0095,0.008,0.0078,0.011,0.0087,0.0062,0.013,0.0079,0.0083,0.0151,0.0165,0.0176,0.02,0.0026,0,0,0,0,0,-0.003,-0.0013,0.0013,0.0025,0.0037,0.0058,0.007,0.0081,0.0096,0.0101,0.0102,0.0106,0.0129,0.013,0.014,0.0164,0.0133,0.0191,0.0203,0.0213,0.0231,0.0228,0.0241,0.0105,0.0105,0.0105,0,0,-0.0034,-0.0016,-0.0009,0.0023,0.0041,0.0083,0.0064,0.0089,0.0132,0.0092,0.0143,0.0143,0.0145,0.0191,0.0202,0.0173,0.0233,0.0219,0.0227,0.024,0.0234,0.0247,0.0259,0.0108,0.0108,0.0107,0,0,-0.0021,-0.0017,0.0009,0.0037,0.007,0.0093,0.0099,0.0133,0.0155,0.0198,0.0197,0.023,0.0239,0.0274,0.0287,0.0364,0.0297,0.0354,0.0427,0.0424,0.0435,0.0444,0.0406,0.0411,0.0356,0.0356,0.0356,0,-0.0027,0.0014,0.002,0.0061,0.0095,0.01,0.015,0.018,0.0216,0.0249,0.0224,0.0296,0.0295,0.0375,0.0411,0.0395,0.0355,0.0373,0.0439,0.0447,0.0455,0.0414,0.0418,0.0362,0.0361,0.036,0.036,0,0.0018,0.0053,0.0071,0.0133,0.0168,0.0207,0.0253,0.0291,0.0311,0.0344,0.0416,0.0427,0.0468,0.0481,0.0471,0.0541,0.0482,0.0455,0.0401,0.0475,0.0426,0.0429,0.037,0.0368,0.0366,0.0365,0,0,0.0006,0.0088,0.0097,0.0147,0.0212,0.0251,0.0326,0.0406,0.0464,0.0495,0.0569,0.0632,0.0623,0.0639,0.063,0.064,0.0663,0.0571,0.0568,0.053,0.0618,0.0566,0.0563,0.063,0.0631,0.0632,0.0555,0,0.0045,0.0133,0.0169,0.0269,0.0324,0.0367,0.0443,0.0512,0.0559,0.0626,0.0656,0.0713,0.0686,0.0703,0.0715,0.0681,0.0676,0.0684,0.0556,0.0553,0.0496,0.0568,0.0611,0.0546,0.0557,0.0558,0.0558,0,0.0092,0.0148,0.0244,0.0358,0.0386,0.0445,0.0567,0.0635,0.0724,0.0757,0.081,0.0814,0.0864,0.081,0.079,0.0784,0.0716,0.0676,0.0671,0.0594,0.0508,0.0479,0.0549,0.0381,0.0561,0.0561,0.0561,0,0.0103,0.021,0.029,0.0328,0.0446,0.0505,0.0571,0.0674,0.0747,0.0832,0.0876,0.0913,0.0929,0.0876,0.0803,0.0786,0.0745,0.0704,0.0594,0.0587,0.0588,0.058,0.0485,0.0684,0.0684,0.0684,0.0684,0,0.0147,0.0214,0.03,0.0349,0.0458,0.0527,0.0647,0.0718,0.0816,0.091,0.0933,0.0997,0.0944,0.0914,0.0827,0.0722,0.0757,0.0626,0.0581,0.0623,0.0618,0.0441,0.0342,0.0681,0.0682,0.0682,0.0683,0,0.0164,0.0213,0.0314,0.0429,0.0469,0.0547,0.0687,0.0776,0.0852,0.0967,0.0994,0.1053,0.1027,0.0949,0.086,0.0752,0.0571,0.0602,0.0638,0.0599,0.0335,0.0242,0.0125,0.0057,0.0472,0.0471,0.0469,0,0.0187,0.0235,0.0359,0.0421,0.0477,0.059,0.0681,0.0786,0.0878,0.1009,0.1067,0.1082,0.1129,0.0976,0.0816,0.0653,0.052,0.0532,0.053,0.0343,0.0206,0.0163,0.0112,0.056,0.0559,0.0559,0.0559,0,0.0236,0.0269,0.0352,0.0467,0.0563,0.0683,0.0806,0.0876,0.1003,0.1095,0.1202,0.1247,0.1138,0.1027,0.0799,0.0683,0.0429,0.0517,0.0339,0.0289,0.0225,0.0131,0.0548,0.0556,0.0556,0.0556,0.0557,0.0557,0.0271,0.0332,0.0429,0.0541,0.0648,0.0778,0.0876,0.0999,0.1139,0.1309,0.1314,0.1436,0.1232,0.0964,0.0747,0.0373,0.0375,0.0263,0.0168,0.0143,0.0081,0.0469,0.0415,0.0414,0.0414,0.0413,0.0413,0,0.0327,0.0398,0.0504,0.0644,0.0759,0.081,0.0973,0.1076,0.1234,0.141,0.152,0.1548,0.1254,0.0934,0.0429,0.0098,0.0022,-0.0084,-0.012,-0.0154,0.0212,0.0219,0.0102,0.0102,0.0102,0.0103,0.0103,0.0103,0.0367,0.047,0.0525,0.0717,0.0814,0.0972,0.1065,0.1213,0.1362,0.161,0.176,0.1866,0.1613,0.0618,-0.008,-0.0237,-0.0464,-0.0499,-0.0652,-0.0405,-0.0379,-0.0354,-0.037,-0.0609,-0.0609,-0.0925,-0.0928,-0.0931]}],[{"header":{"parameterUnit":"m.s-1","parameterCategory":2,"la1":30.2991,"la2":30.254,"lo1":-89.0895,"lo2":-89.0444,"dy":0.0017,"dx":0.0017,"nx":28,"ny":28,"refTime":"2023-11-05T09:00:00:Z","depth":"2","parameterNumber":2,"parameterNumberName":"U-component_of_CURRENTS"},"data":[0,0,0,0,0,0,0,0,0,0,0,0,0,0,0,0,0,0,0,0,0,0,0,0,0,0,0,0,0,0,0,0,0,0,0,0,0,0,0,0,0,0,0,0,0,0,0,0,0,0,0,0,0,0,0,0,0,0,0.1871,0.1871,0,0.1915,0.1915,0.1916,0.1943,0.1943,0.1943,0.1944,0.2001,0.2003,0.2004,0,0,0,0,0,0,0,0,0,0,0,0,0,0.1839,0.1839,0.1871,0.1871,0.1872,0.1915,0.1915,0.1916,0.1943,0.1943,0.1943,0.1944,0.2001,0.2002,0.2004,0,0,0,0,0,0,0,0,0,0,0,0,0,0.1864,0.1839,0.1871,0.1892,0.1894,0.1915,0.1915,0.1916,0.1943,0.1943,0.1944,0.1944,0.2,0.2002,0.2004,0.2009,0,0,0.201,0.2011,0,0,0,0,0,0,0,0,0.1862,0.1865,0.1888,0.189,0.1893,0.1925,0.1925,0.1948,0.1943,0.1923,0.1944,0.1944,0.1977,0.1981,0.1987,0.2012,0.2014,0.201,0.2011,0.2012,0.2013,0,0,0,0,0,0,0,0.186,0.1863,0.1887,0.1889,0.1892,0.1909,0.1912,0.193,0.1947,0.1925,0.1927,0.1934,0.1979,0.1985,0.1989,0.2015,0.201,0.2012,0.2013,0.2014,0.2105,0.2106,0,0,0,0,0,0,0.1855,0.1861,0.1886,0.1889,0.1879,0.1909,0.1913,0.1913,0.1947,0.1952,0.1933,0.1935,0.1981,0.1986,0.1991,0.2049,0.2012,0.2014,0.2015,0.2104,0.2106,0.2107,0,0,0,0,0,0,0.1854,0.1857,0.1884,0.1877,0.1882,0.1909,0.1909,0.1914,0.1931,0.1953,0.1959,0.1947,0.1982,0.1988,0.2024,0.2049,0.2015,0.2017,0.2103,0.2104,0.2106,0.2133,0,0,0,0,0,0,0.1853,0.1856,0.186,0.1877,0.1882,0.1899,0.1909,0.1915,0.1934,0.1937,0.1967,0.1972,0.1983,0.2021,0.2026,0.2051,0.2018,0.2101,0.2103,0.2106,0.213,0.2135,0.214,0,0,0,0,0,0.1851,0.1846,0.1859,0.1863,0.1885,0.19,0.1904,0.1924,0.1935,0.1941,0.1971,0.1971,0.204,0.2024,0.2029,0.2056,0.21,0.2103,0.2105,0.2128,0.2134,0.2139,0,0,0,0,0,0,0.183,0.1849,0.1864,0.1865,0.1886,0.1905,0.1915,0.1929,0.1956,0.1966,0.1985,0.1992,0.2036,0.2041,0.2023,0.209,0.2071,0.2075,0.2086,0.2092,0.2097,0.209,0.202,0,0,0,0,0,0.1829,0.1836,0.1857,0.1862,0.1872,0.1897,0.1909,0.1924,0.1948,0.196,0.1983,0.2014,0.2049,0.2066,0.2092,0.2124,0.2144,0.2146,0.2151,0.2154,0.2154,0.2209,0.2219,0.2116,0.2116,0.2116,0,0,0.1823,0.1836,0.184,0.1859,0.1879,0.1891,0.1905,0.1925,0.1941,0.1963,0.1997,0.2031,0.2062,0.2104,0.2124,0.2113,0.2197,0.2158,0.2161,0.2158,0.2213,0.2223,0.2232,0.2118,0.2118,0.2117,0,0,0.181,0.1828,0.1829,0.1848,0.1878,0.1894,0.1901,0.1929,0.1951,0.1986,0.2015,0.2063,0.2103,0.2136,0.2157,0.2201,0.222,0.2215,0.2233,0.2287,0.2296,0.2304,0.2351,0.2363,0.2216,0.2216,0.2216,0,0.1805,0.1812,0.1833,0.1843,0.1862,0.1894,0.1905,0.1927,0.1966,0.1996,0.1999,0.2094,0.2117,0.2182,0.2203,0.2211,0.2246,0.2208,0.2293,0.2301,0.2309,0.2355,0.2368,0.2218,0.2218,0.2218,0.2217,0,0.1795,0.1808,0.1813,0.1839,0.1857,0.1876,0.1909,0.1939,0.1973,0.2003,0.2077,0.212,0.2178,0.2198,0.2215,0.2289,0.2299,0.2293,0.2276,0.232,0.2367,0.238,0.222,0.222,0.2219,0.2219,0,0,0.1765,0.18,0.1804,0.1821,0.1863,0.1874,0.1913,0.1961,0.2,0.2048,0.2107,0.2174,0.2212,0.2238,0.2275,0.2321,0.2408,0.2334,0.2336,0.2377,0.2537,0.2436,0.244,0.2426,0.2428,0.243,0.255,0,0.1759,0.1772,0.1795,0.1818,0.1832,0.1881,0.1913,0.1964,0.2019,0.2082,0.2147,0.2214,0.2222,0.2271,0.2318,0.2396,0.2442,0.2376,0.2491,0.2494,0.2395,0.2451,0.2157,0.223,0.2563,0.2565,0.2567,0,0.1747,0.176,0.1777,0.1823,0.1834,0.1854,0.1931,0.1966,0.206,0.2108,0.2188,0.2246,0.2343,0.2332,0.2473,0.2437,0.2487,0.253,0.2536,0.2437,0.2416,0.2239,0.2241,0.2588,0.2586,0.2585,0.2583,0,0.1721,0.1751,0.1767,0.1782,0.1831,0.186,0.1896,0.198,0.2029,0.2139,0.22,0.2303,0.2381,0.2458,0.2554,0.2531,0.2696,0.2671,0.2622,0.2616,0.2383,0.2351,0.2753,0.2753,0.2753,0.2753,0.2752,0,0.1708,0.1722,0.1757,0.1767,0.1797,0.1842,0.19,0.1954,0.2049,0.2115,0.2217,0.2297,0.2421,0.2529,0.2585,0.265,0.2726,0.2634,0.2642,0.2384,0.2353,0.2668,0.2657,0.2757,0.2756,0.2755,0.2755,0,0.1682,0.1705,0.1724,0.1769,0.1787,0.1811,0.189,0.1933,0.2032,0.2129,0.2173,0.2328,0.2468,0.2576,0.2717,0.2689,0.2758,0.2756,0.2442,0.2408,0.2634,0.2623,0.271,0.2707,0.2705,0.2703,0.2702,0,0.1672,0.1677,0.1716,0.1726,0.1748,0.1793,0.1826,0.1915,0.1967,0.2142,0.2186,0.236,0.2435,0.2597,0.2554,0.2603,0.2761,0.2411,0.2291,0.2632,0.2632,0.2623,0.2615,0.2009,0.2002,0.1996,0.1991,0,0.1649,0.1665,0.1676,0.1695,0.1722,0.1751,0.1808,0.1842,0.1958,0.2047,0.2176,0.2249,0.233,0.2242,0.2286,0.2275,0.237,0.2293,0.2752,0.2054,0.1977,0.1974,0.1988,0.194,0.1945,0.1949,0.1951,0.1954,0.1632,0.1631,0.1644,0.1659,0.1679,0.1696,0.171,0.1775,0.1842,0.1912,0.204,0.2046,0.2032,0.1914,0.1903,0.1883,0.2021,0.1973,0.1988,0.2011,0.1896,0.1818,0.1731,0.1735,0.1738,0.1741,0.1744,0,0.1602,0.1603,0.1608,0.1609,0.1599,0.1644,0.1683,0.1675,0.1719,0.1737,0.1788,0.1575,0.1499,0.1568,0.138,0.1367,0.1321,0.1408,0.1336,0.1383,0.1427,0.1283,0.0956,0.0955,0.0954,0.0953,0,0,0.1585,0.1568,0.1563,0.1524,0.1533,0.1519,0.1531,0.1521,0.1512,0.1401,0.1333,0.1367,0.1421,0.1158,0.1115,0.1033,0.1213,0.0985,0.159,0.1545,0.1589,0.1697,0.1521,0,0,0,0,0]},{"header":{"parameterUnit":"m.s-1","parameterCategory":2,"la1":30.2991,"la2":30.254,"lo1":-89.0895,"lo2":-89.0444,"dy":0.0017,"dx":0.0017,"nx":28,"ny":28,"refTime":"2023-11-05T09:00:00:Z","depth":"2","parameterNumber":3,"parameterNumberName":"V-component_of_CURRENTS"},"data":[0,0,0,0,0,0,0,0,0,0,0,0,0,0,0,0,0,0,0,0,0,0,0,0,0,0,0,0,0,0,0,0,0,0,0,0,0,0,0,0,0,0,0,0,0,0,0,0,0,0,0,0,0,0,0,0,0,0,-0.0153,-0.0153,0,-0.021,-0.0211,-0.0211,-0.0244,-0.0244,-0.0244,-0.0244,-0.0337,-0.0339,-0.0342,0,0,0,0,0,0,0,0,0,0,0,0,0,-0.008,-0.0081,-0.0153,-0.0154,-0.0154,-0.021,-0.0211,-0.0212,-0.0244,-0.0244,-0.0244,-0.0244,-0.0336,-0.0339,-0.0342,0,0,0,0,0,0,0,0,0,0,0,0,0,-0.0122,-0.0082,-0.0153,-0.0177,-0.018,-0.021,-0.0211,-0.0212,-0.0244,-0.0244,-0.0244,-0.0244,-0.0335,-0.0339,-0.0342,-0.036,0,0,-0.0353,-0.0355,0,0,0,0,0,0,0,0,-0.0119,-0.0124,-0.0173,-0.0176,-0.0179,-0.022,-0.0219,-0.0263,-0.0244,-0.0219,-0.0244,-0.0244,-0.0301,-0.0308,-0.0317,-0.0365,-0.0369,-0.0353,-0.0356,-0.0357,-0.0358,0,0,0,0,0,0,0,-0.0116,-0.0122,-0.0175,-0.0174,-0.0177,-0.0189,-0.0195,-0.0228,-0.0259,-0.0221,-0.0224,-0.0231,-0.0303,-0.0314,-0.032,-0.037,-0.0353,-0.0356,-0.0359,-0.036,-0.0458,-0.0458,0,0,0,0,0,0,-0.0109,-0.0119,-0.0173,-0.0177,-0.0149,-0.019,-0.0196,-0.0207,-0.0258,-0.0266,-0.023,-0.0232,-0.0308,-0.0316,-0.0323,-0.0343,-0.0357,-0.036,-0.0362,-0.0457,-0.0458,-0.0458,0,0,0,0,0,0,-0.0108,-0.0114,-0.0171,-0.0149,-0.0158,-0.0191,-0.0202,-0.0208,-0.0221,-0.0264,-0.0273,-0.0238,-0.0308,-0.0318,-0.0355,-0.0347,-0.0362,-0.0365,-0.0457,-0.0457,-0.0458,-0.0386,0,0,0,0,0,0,-0.0105,-0.0113,-0.0118,-0.0149,-0.0159,-0.0187,-0.0202,-0.0209,-0.0225,-0.0228,-0.0274,-0.0283,-0.0309,-0.0349,-0.0358,-0.0352,-0.0368,-0.0456,-0.0457,-0.0458,-0.0388,-0.0384,-0.0381,0,0,0,0,0,-0.0103,-0.0106,-0.0118,-0.0125,-0.0165,-0.0187,-0.0192,-0.0216,-0.0225,-0.0229,-0.0262,-0.0281,-0.0361,-0.0352,-0.0363,-0.0358,-0.0456,-0.0457,-0.0458,-0.0389,-0.0385,-0.0381,0,0,0,0,0,0,-0.0077,-0.0111,-0.0125,-0.0139,-0.0161,-0.0192,-0.0199,-0.0215,-0.0244,-0.0249,-0.0287,-0.0298,-0.0328,-0.0359,-0.0348,-0.0392,-0.0412,-0.0415,-0.0356,-0.0353,-0.0349,-0.0312,-0.0371,0,0,0,0,0,-0.0074,-0.0086,-0.0119,-0.0129,-0.014,-0.017,-0.0182,-0.0198,-0.0227,-0.024,-0.027,-0.0308,-0.0341,-0.0358,-0.0394,-0.0417,-0.0433,-0.0423,-0.042,-0.0416,-0.0395,-0.0428,-0.0425,-0.0462,-0.0462,-0.0462,0,0,-0.0067,-0.0087,-0.0094,-0.0124,-0.0144,-0.0145,-0.0178,-0.0194,-0.0191,-0.0246,-0.0255,-0.0298,-0.0346,-0.037,-0.0386,-0.0393,-0.0414,-0.0418,-0.0414,-0.0394,-0.0429,-0.0425,-0.0422,-0.0463,-0.0462,-0.0462,0,0,-0.0045,-0.0076,-0.0072,-0.0088,-0.0115,-0.0132,-0.0135,-0.0167,-0.0179,-0.0199,-0.0236,-0.0272,-0.0322,-0.0348,-0.0369,-0.0372,-0.0397,-0.0391,-0.0338,-0.0371,-0.0367,-0.0364,-0.0369,-0.0367,-0.0386,-0.0386,-0.0386,0,-0.0033,-0.0034,-0.0074,-0.007,-0.0074,-0.0121,-0.0109,-0.0128,-0.0165,-0.0165,-0.0194,-0.0257,-0.0306,-0.0322,-0.0325,-0.036,-0.0374,-0.0344,-0.0363,-0.0361,-0.0359,-0.0365,-0.0363,-0.0382,-0.0383,-0.0383,-0.0383,0,-0.0003,-0.0004,-0.0004,-0.0012,-0.0023,-0.0024,-0.0053,-0.006,-0.0084,-0.0102,-0.0128,-0.0195,-0.0225,-0.0256,-0.0291,-0.0302,-0.0314,-0.0354,-0.0363,-0.035,-0.0358,-0.0358,-0.0377,-0.0379,-0.038,-0.0381,0,0,0.003,0.0021,0.0022,0.0035,0.0009,0.0008,0.0013,0.0009,0.003,-0.0025,-0.0004,-0.0084,-0.0118,-0.0145,-0.0201,-0.0234,-0.0243,-0.028,-0.0284,-0.0266,-0.0291,-0.0309,-0.0311,-0.0288,-0.0287,-0.0287,-0.0297,0,0.0069,0.0096,0.0078,0.0111,0.0124,0.0095,0.0111,0.01,0.0083,0.009,0.0018,0.0001,-0.0077,-0.0093,-0.0136,-0.0212,-0.0242,-0.0235,-0.0323,-0.0324,-0.0327,-0.0311,-0.0306,-0.0315,-0.0297,-0.0297,-0.0297,0,0.011,0.0124,0.0158,0.0186,0.019,0.0201,0.0227,0.0237,0.0229,0.0216,0.0186,0.0131,0.0083,0.0003,-0.01,-0.009,-0.0179,-0.0246,-0.0249,-0.0286,-0.0342,-0.0331,-0.0316,-0.0297,-0.0297,-0.0297,-0.0297,0,0.016,0.0185,0.0217,0.0222,0.0238,0.0257,0.027,0.0275,0.0302,0.0296,0.0316,0.0242,0.0216,0.0098,-0.0041,-0.0071,-0.0149,-0.0214,-0.031,-0.0311,-0.0332,-0.0336,-0.0292,-0.0292,-0.0292,-0.0292,-0.0291,0,0.0212,0.0241,0.0243,0.0262,0.0316,0.0309,0.037,0.0378,0.0403,0.0453,0.0382,0.0407,0.0235,0.0165,0.0017,-0.0123,-0.0107,-0.0281,-0.0315,-0.0308,-0.0309,-0.0321,-0.0325,-0.0292,-0.0292,-0.0292,-0.0292,0,0.0259,0.0259,0.0302,0.0326,0.0339,0.0376,0.043,0.048,0.0498,0.0564,0.0565,0.0534,0.0452,0.0286,0.0112,-0.0035,-0.0182,-0.0245,-0.0207,-0.0237,-0.0335,-0.0334,-0.0345,-0.0346,-0.0347,-0.0347,-0.0348,0,0.0285,0.0308,0.0345,0.0373,0.0383,0.0436,0.0483,0.0517,0.0574,0.0647,0.0689,0.0644,0.0622,0.039,0.0125,-0.0112,-0.0154,-0.0269,-0.0344,-0.0308,-0.034,-0.0339,-0.0338,-0.0338,-0.0338,-0.0338,-0.0339,0,0.0335,0.0339,0.0372,0.0428,0.0474,0.0544,0.0611,0.0674,0.0734,0.08,0.0891,0.0884,0.067,0.0429,0.0099,-0.0062,-0.0232,-0.0283,-0.0249,-0.0329,-0.0304,-0.0334,-0.0333,-0.0341,-0.0341,-0.034,-0.034,-0.034,0.0364,0.0395,0.0431,0.0489,0.0549,0.0647,0.0722,0.0819,0.0933,0.1028,0.1008,0.096,0.0676,0.0225,0.0011,-0.0226,-0.025,-0.0371,-0.0369,-0.0368,-0.0369,-0.0347,-0.039,-0.039,-0.039,-0.039,-0.039,0,0.0398,0.0432,0.0492,0.0568,0.0647,0.0666,0.0804,0.0906,0.1063,0.1072,0.1116,0.0787,0.0523,0.0242,-0.013,-0.0353,-0.0355,-0.0394,-0.0373,-0.037,-0.0368,-0.0369,-0.039,-0.0391,-0.0391,-0.0391,0,0,0.0417,0.0473,0.0508,0.0634,0.069,0.0812,0.0897,0.107,0.1118,0.1125,0.1015,0.0865,0.0503,0.0215,-0.0048,-0.0213,-0.0228,-0.0229,-0.0215,-0.0156,-0.0151,-0.0351,-0.0349,0,0,0,0,0]}],[{"header":{"parameterUnit":"m.s-1","parameterCategory":2,"la1":30.2991,"la2":30.254,"lo1":-89.0895,"lo2":-89.0444,"dy":0.0017,"dx":0.0017,"nx":28,"ny":28,"refTime":"2023-11-05T09:00:00:Z","depth":"4","parameterNumber":2,"parameterNumberName":"U-component_of_CURRENTS"},"data":[0,0,0,0,0,0,0,0,0,0,0,0,0,0,0,0,0,0,0,0,0,0,0,0,0,0,0,0,0,0,0,0,0,0,0,0,0,0,0,0,0,0,0,0,0,0,0,0,0,0,0,0,0,0,0,0,0,0,0.0408,0.041,0,0.0531,0.0532,0.0532,0.0636,0.0638,0.064,0.0642,0.0673,0.0672,0.0672,0,0,0,0,0,0,0,0,0,0,0,0,0,0.0282,0.0283,0.0408,0.041,0.0412,0.0531,0.0532,0.0533,0.0636,0.0638,0.0641,0.0643,0.0674,0.0673,0.0672,0,0,0,0,0,0,0,0,0,0,0,0,0,0.0357,0.0284,0.0408,0.0484,0.0493,0.0531,0.0532,0.0533,0.0636,0.0638,0.0641,0.0644,0.0674,0.0673,0.0671,0.0608,0,0,0.0667,0.0667,0,0,0,0,0,0,0,0,0.0352,0.036,0.047,0.0479,0.0489,0.0578,0.05,0.0556,0.0635,0.0573,0.0642,0.0645,0.0636,0.0638,0.0645,0.061,0.0611,0.0667,0.0666,0.0666,0.0666,0,0,0,0,0,0,0,0.0347,0.0356,0.0449,0.0473,0.0484,0.0519,0.0532,0.0511,0.058,0.0579,0.0589,0.0613,0.0639,0.0646,0.0647,0.0611,0.0667,0.0666,0.0665,0.0665,0.0619,0.0619,0,0,0,0,0,0,0.0343,0.0351,0.0445,0.0453,0.0435,0.052,0.0534,0.054,0.0582,0.0595,0.0611,0.0618,0.0647,0.0648,0.0648,0.0687,0.0666,0.0665,0.0664,0.0619,0.0619,0.0618,0,0,0,0,0,0,0.034,0.0349,0.044,0.0412,0.0427,0.052,0.0526,0.0541,0.0606,0.0609,0.0619,0.0667,0.0649,0.065,0.0661,0.0685,0.0664,0.0663,0.062,0.0619,0.0619,0.0692,0,0,0,0,0,0,0.0335,0.0347,0.0372,0.0411,0.0429,0.0493,0.0525,0.0542,0.0617,0.0628,0.0659,0.0662,0.0652,0.0663,0.0659,0.0683,0.0662,0.062,0.062,0.0619,0.0691,0.0694,0.0698,0,0,0,0,0,0.0329,0.0331,0.0371,0.0385,0.0452,0.0495,0.0507,0.0576,0.0618,0.0644,0.0659,0.0664,0.0655,0.0661,0.0657,0.0681,0.0621,0.062,0.0619,0.0689,0.0694,0.0698,0,0,0,0,0,0,0.029,0.0344,0.0388,0.041,0.0472,0.0516,0.0547,0.06,0.0635,0.066,0.0657,0.0659,0.0675,0.0657,0.0663,0.066,0.0638,0.0637,0.0693,0.0697,0.07,0.0735,0.0661,0,0,0,0,0,0.0293,0.0309,0.0378,0.0401,0.0429,0.05,0.0537,0.0596,0.0627,0.0651,0.0668,0.067,0.0655,0.0665,0.0647,0.0646,0.0629,0.0656,0.0659,0.0663,0.0685,0.0655,0.0659,0.0615,0.0615,0.0615,0,0,0.0292,0.0319,0.0338,0.0396,0.0441,0.0498,0.0527,0.0597,0.0653,0.064,0.07,0.0685,0.0655,0.0657,0.0663,0.0657,0.0665,0.0661,0.0665,0.0686,0.0655,0.0659,0.0663,0.0615,0.0615,0.0615,0,0,0.0283,0.0314,0.0339,0.0383,0.0472,0.0519,0.0553,0.0629,0.0672,0.0722,0.0715,0.0717,0.0716,0.0694,0.068,0.0686,0.068,0.0687,0.0746,0.0716,0.072,0.0724,0.0713,0.0715,0.0696,0.0696,0.0696,0,0.0295,0.0326,0.0356,0.0392,0.045,0.0534,0.0601,0.0638,0.0716,0.0735,0.0756,0.0748,0.0729,0.0713,0.0728,0.0698,0.0693,0.0738,0.0724,0.0727,0.073,0.0717,0.0719,0.0699,0.0699,0.0699,0.0698,0,0.0309,0.0354,0.0362,0.0444,0.0506,0.0566,0.0644,0.0699,0.0767,0.0804,0.0827,0.0799,0.0801,0.0785,0.0771,0.0773,0.0768,0.073,0.0723,0.0739,0.0724,0.0724,0.0704,0.0703,0.0702,0.0701,0,0,0.0293,0.0366,0.0377,0.0435,0.0549,0.0599,0.0676,0.076,0.0806,0.0859,0.0897,0.0878,0.0887,0.087,0.0841,0.0825,0.0836,0.0811,0.0807,0.0819,0.0801,0.0734,0.0727,0.0809,0.0809,0.081,0.0786,0,0.0319,0.0377,0.0428,0.0534,0.0586,0.0677,0.0736,0.0819,0.0873,0.0913,0.09,0.0919,0.0909,0.0922,0.0907,0.085,0.084,0.0848,0.0768,0.0766,0.0719,0.0725,0.081,0.0786,0.0786,0.0786,0.0786,0,0.034,0.0374,0.0468,0.058,0.0616,0.071,0.0831,0.0892,0.0943,0.0973,0.1,0.0996,0.0998,0.0975,0.0926,0.0943,0.0898,0.0848,0.0844,0.0761,0.0698,0.0762,0.0786,0.0786,0.0786,0.0786,0.0786,0,0.0309,0.0416,0.0493,0.0532,0.0664,0.0748,0.0841,0.0924,0.0963,0.1024,0.1049,0.1052,0.1057,0.1013,0.0941,0.0952,0.0862,0.0845,0.0738,0.0733,0.0771,0.0767,0.0804,0.0804,0.0804,0.0804,0.0805,0,0.0313,0.0374,0.0498,0.0532,0.0659,0.076,0.088,0.0949,0.1019,0.103,0.1091,0.1048,0.1072,0.1019,0.0958,0.0849,0.0875,0.076,0.0721,0.0801,0.0801,0.0771,0.0768,0.0804,0.0804,0.0804,0.0804,0,0.0283,0.0346,0.0437,0.0582,0.0651,0.075,0.0924,0.0961,0.1049,0.1063,0.1088,0.1077,0.0997,0.0986,0.0888,0.0856,0.0754,0.0698,0.0802,0.0766,0.0653,0.0654,0.0616,0.0614,0.0612,0.061,0.0608,0,0.027,0.0309,0.0462,0.0531,0.0626,0.0775,0.0851,0.0974,0.0984,0.1007,0.0968,0.0951,0.0921,0.0762,0.0729,0.0662,0.0628,0.064,0.0656,0.0668,0.0634,0.0638,0.0641,0.0605,0.0604,0.0604,0.0603,0,0.0251,0.0312,0.0378,0.0502,0.0622,0.0717,0.0828,0.0817,0.0888,0.0976,0.0864,0.0829,0.0731,0.0661,0.0646,0.056,0.0681,0.0617,0.0622,0.0637,0.0653,0.0622,0.0628,0.0595,0.0596,0.0597,0.0598,0,0.0242,0.0282,0.0365,0.0477,0.0599,0.0632,0.069,0.0704,0.074,0.078,0.0692,0.0651,0.0668,0.0593,0.0511,0.0509,0.0503,0.0536,0.0545,0.0554,0.0541,0.0554,0.0438,0,0,0,0,0,0.0243,0.0264,0.0336,0.0435,0.0535,0.0608,0.0657,0.0679,0.0718,0.0642,0.0696,0.0591,0.0527,0.0459,0.0438,0.0437,0.0483,0.0411,0.0521,0.0553,0.0562,0.0551,0,0,0,0,0,0,0.0242,0.0299,0.0305,0.0375,0.0432,0.0521,0.054,0.0549,0.0506,0.0553,0.0493,0.0602,0.0504,0.055,0.0442,0.0438,0.0506,0.0419,0.0419,0.0548,0.0556,0.0563,0.0555,0,0,0,0,0]},{"header":{"parameterUnit":"m.s-1","parameterCategory":2,"la1":30.2991,"la2":30.254,"lo1":-89.0895,"lo2":-89.0444,"dy":0.0017,"dx":0.0017,"nx":28,"ny":28,"refTime":"2023-11-05T09:00:00:Z","depth":"4","parameterNumber":3,"parameterNumberName":"V-component_of_CURRENTS"},"data":[0,0,0,0,0,0,0,0,0,0,0,0,0,0,0,0,0,0,0,0,0,0,0,0,0,0,0,0,0,0,0,0,0,0,0,0,0,0,0,0,0,0,0,0,0,0,0,0,0,0,0,0,0,0,0,0,0,0,0.0384,0.0384,0,0.0378,0.0377,0.0377,0.0324,0.0323,0.0323,0.0322,0.0184,0.0181,0.0178,0,0,0,0,0,0,0,0,0,0,0,0,0,0.0333,0.0334,0.0384,0.0384,0.0385,0.0378,0.0377,0.0376,0.0324,0.0323,0.0322,0.0322,0.0185,0.0182,0.0178,0,0,0,0,0,0,0,0,0,0,0,0,0,0.0338,0.0334,0.0384,0.0362,0.0361,0.0378,0.0377,0.0376,0.0324,0.0323,0.0322,0.0321,0.0186,0.0182,0.0178,0.0172,0,0,0.0164,0.0162,0,0,0,0,0,0,0,0,0.0338,0.0339,0.0365,0.0364,0.0362,0.0356,0.0309,0.0303,0.0325,0.0332,0.0322,0.0321,0.0234,0.0226,0.022,0.0165,0.0159,0.0164,0.0161,0.0159,0.0158,0,0,0,0,0,0,0,0.0338,0.0339,0.0375,0.0366,0.0364,0.0348,0.0347,0.0308,0.0282,0.0331,0.0329,0.0338,0.0232,0.0225,0.0216,0.0157,0.0164,0.016,0.0157,0.0155,0.0009,0.0008,0,0,0,0,0,0,0.0354,0.0339,0.0375,0.0375,0.0354,0.035,0.0349,0.0354,0.0285,0.0276,0.0339,0.0336,0.0233,0.0222,0.0211,0.0132,0.0159,0.0155,0.0152,0.001,0.0009,0.0008,0,0,0,0,0,0,0.0352,0.0357,0.0376,0.0362,0.0364,0.0353,0.0359,0.0355,0.0339,0.0294,0.0281,0.0328,0.0232,0.0217,0.0164,0.0129,0.0153,0.0149,0.0012,0.001,0.0008,0.0018,0,0,0,0,0,0,0.0351,0.0356,0.0374,0.0363,0.0366,0.0382,0.0361,0.0355,0.035,0.0345,0.028,0.0267,0.023,0.0171,0.0159,0.0123,0.0145,0.0013,0.0011,0.0009,0.0019,0.0017,0.0015,0,0,0,0,0,0.0349,0.036,0.0374,0.0379,0.0387,0.0383,0.0382,0.0366,0.0351,0.0346,0.0296,0.0268,0.0148,0.0167,0.0153,0.0115,0.0014,0.0012,0.0009,0.002,0.0017,0.0015,0,0,0,0,0,0,0.0342,0.0357,0.0371,0.0387,0.0392,0.0376,0.0378,0.0367,0.0327,0.0316,0.0262,0.0246,0.0182,0.0153,0.0175,0.0066,0.0072,0.0067,0.0085,0.0082,0.008,0.0076,0.0141,0,0,0,0,0,0.0357,0.0369,0.0381,0.0395,0.0399,0.0391,0.0391,0.038,0.0348,0.033,0.0277,0.0218,0.0164,0.0129,0.008,0.0029,0.0009,-0.0008,-0.001,-0.0012,-0.0025,-0.0074,-0.0081,-0.0001,-0.0001,-0.0001,0,0,0.0362,0.0372,0.0381,0.0397,0.0396,0.0393,0.0385,0.0382,0.0359,0.032,0.0256,0.0212,0.015,0.0087,0.0054,0.0055,-0.0042,-0.0015,-0.0016,-0.0029,-0.0077,-0.0085,-0.0092,-0.0003,-0.0003,-0.0002,0,0,0.0361,0.0384,0.039,0.0392,0.0403,0.0398,0.0397,0.0375,0.0347,0.03,0.0256,0.0195,0.0113,0.0058,0.0022,-0.0021,-0.0048,-0.0042,-0.0064,-0.0111,-0.0117,-0.0124,-0.0138,-0.0146,-0.0048,-0.0048,-0.0048,0,0.0371,0.0379,0.0391,0.039,0.0392,0.0397,0.0392,0.0368,0.0323,0.0286,0.0276,0.014,0.0095,0.0007,-0.0014,-0.0028,-0.0046,-0.0045,-0.0112,-0.0119,-0.0126,-0.0139,-0.0148,-0.0048,-0.0048,-0.0048,-0.0048,0,0.0362,0.0377,0.0375,0.0379,0.0381,0.0378,0.0361,0.0331,0.0299,0.0264,0.0172,0.0111,0.0028,0.0,-0.0024,-0.0104,-0.0096,-0.0102,-0.01,-0.0133,-0.0145,-0.0154,-0.0048,-0.0048,-0.0048,-0.0048,0,0,0.0366,0.0371,0.0374,0.0377,0.0375,0.0371,0.0333,0.0295,0.0255,0.0194,0.0125,0.0028,-0.0006,-0.0049,-0.0089,-0.0137,-0.0189,-0.0143,-0.0145,-0.0147,-0.0273,-0.0222,-0.0227,-0.0206,-0.0208,-0.0209,-0.0253,0,0.036,0.0357,0.036,0.0356,0.0353,0.0342,0.0307,0.0268,0.0219,0.015,0.0075,0.0004,-0.0023,-0.006,-0.0118,-0.0179,-0.0217,-0.0176,-0.025,-0.0252,-0.0196,-0.0238,-0.0216,-0.026,-0.0262,-0.0264,-0.0265,0,0.0353,0.0351,0.0351,0.034,0.0338,0.034,0.0289,0.0255,0.0168,0.0123,0.0039,-0.0014,-0.011,-0.011,-0.0236,-0.0208,-0.0243,-0.0279,-0.0281,-0.0249,-0.022,-0.0229,-0.0282,-0.0281,-0.0279,-0.0278,-0.0277,0,0.0342,0.0345,0.0348,0.0346,0.0333,0.0327,0.0315,0.0247,0.0212,0.0115,0.0078,-0.0043,-0.0094,-0.0178,-0.0255,-0.0252,-0.0369,-0.0368,-0.0352,-0.0347,-0.038,-0.0373,-0.0444,-0.0443,-0.0443,-0.0443,-0.0443,0,0.0328,0.0331,0.0354,0.035,0.0353,0.0338,0.0317,0.0273,0.0214,0.0165,0.0076,0.0007,-0.0115,-0.0196,-0.0263,-0.0335,-0.0374,-0.0368,-0.0367,-0.0371,-0.0363,-0.0385,-0.0377,-0.0445,-0.0444,-0.0444,-0.0444,0,0.0318,0.033,0.0339,0.0344,0.0354,0.0358,0.0357,0.0323,0.0271,0.0209,0.0184,0.0044,-0.0068,-0.0161,-0.0294,-0.0328,-0.0406,-0.041,-0.039,-0.0385,-0.0349,-0.0341,-0.0413,-0.0412,-0.0411,-0.041,-0.0409,0,0.0306,0.0313,0.0348,0.0366,0.0383,0.0394,0.0391,0.0357,0.0326,0.0219,0.0184,0.007,-0.0023,-0.0177,-0.0276,-0.0375,-0.0379,-0.0403,-0.0404,-0.036,-0.0352,-0.0345,-0.0339,-0.0408,-0.0408,-0.0407,-0.0407,0,0.0284,0.0315,0.0325,0.0368,0.0395,0.0404,0.0405,0.0384,0.0323,0.0301,0.0172,0.0072,-0.0042,-0.0178,-0.0232,-0.0313,-0.0392,-0.0394,-0.0397,-0.0397,-0.0354,-0.0346,-0.0341,-0.0404,-0.0404,-0.0405,-0.0405,0,0.0277,0.0293,0.0324,0.0354,0.0397,0.0392,0.0387,0.035,0.032,0.0228,0.0181,0.0043,-0.0034,-0.0146,-0.022,-0.027,-0.0287,-0.0303,-0.0311,-0.0315,-0.0269,-0.0199,-0.0214,0,0,0,0,0,0.0271,0.0277,0.0299,0.0331,0.0374,0.0398,0.0383,0.0366,0.033,0.0255,0.0224,0.0117,-0.0022,-0.0114,-0.0155,-0.0199,-0.0291,-0.0248,-0.0312,-0.0385,-0.0389,-0.0347,0,0,0,0,0,0,0.0266,0.0288,0.0286,0.031,0.0335,0.0366,0.0356,0.0322,0.0277,0.0237,0.0154,0.0138,-0.0003,0.0022,-0.0143,-0.0163,-0.0205,-0.0304,-0.0304,-0.0383,-0.0387,-0.039,-0.0348,0,0,0,0,0]}]]